| time (UTC) | temp F | wind direction | speed MPH | gust MPH | rain 1hr in | rain 24hr in | rain mn in | humidity % | barometer mb |
| 20260508091003 | 61 | 259 | 2.0 | 8.0 | 0.00 | 0.06 | 0.00 | 68 | 1008.9 |
| 20260508090503 | 60 | 252 | 2.0 | 7.0 | 0.00 | 0.06 | 0.00 | 69 | 1008.9 |
| 20260508090004 | 60 | 232 | 2.0 | 7.0 | 0.00 | 0.06 | 0.00 | 67 | 1009.0 |
| 20260508085503 | 60 | 229 | 3.0 | 7.0 | 0.00 | 0.06 | 0.00 | 68 | 1009.0 |
| 20260508085003 | 60 | 263 | 5.0 | 7.0 | 0.00 | 0.06 | 0.00 | 66 | 1008.6 |
| 20260508084003 | 63 | 11 | 1.0 | 4.0 | 0.00 | 0.06 | 0.00 | 62 | 1008.6 |
| 20260508083503 | 62 | 21 | 1.0 | 4.0 | 0.00 | 0.06 | 0.00 | 63 | 1008.4 |
| 20260508083003 | 61 | 11 | 1.0 | 4.0 | 0.00 | 0.06 | 0.00 | 64 | 1008.4 |
| 20260508082503 | 61 | 358 | 2.0 | 4.0 | 0.00 | 0.06 | 0.00 | 64 | 1008.5 |
| 20260508081503 | 61 | 318 | 1.0 | 4.0 | 0.00 | 0.06 | 0.00 | 65 | 1008.4 |
| 20260508081003 | 61 | 338 | 2.0 | 4.0 | 0.00 | 0.06 | 0.00 | 64 | 1008.3 |
| 20260508080004 | 61 | 354 | 2.0 | 4.0 | 0.00 | 0.06 | 0.00 | 66 | 1008.4 |
| 20260508075503 | 61 | 359 | 2.0 | 4.0 | 0.00 | 0.06 | 0.00 | 64 | 1008.6 |
| 20260508074503 | 61 | 359 | 1.0 | 2.0 | 0.00 | 0.06 | 0.00 | 66 | 1008.6 |
| 20260508074003 | 60 | 28 | 0.0 | 4.0 | 0.00 | 0.06 | 0.00 | 69 | 1008.5 |
| 20260508073503 | 59 | 19 | 2.0 | 4.0 | 0.00 | 0.06 | 0.00 | 69 | 1008.5 |
| 20260508073003 | 59 | 351 | 2.0 | 2.0 | 0.00 | 0.06 | 0.00 | 68 | 1008.6 |
| 20260508072503 | 60 | 342 | 0.0 | 2.0 | 0.00 | 0.06 | 0.00 | 67 | 1008.6 |
| 20260508072003 | 60 | 336 | 1.0 | 4.0 | 0.00 | 0.06 | 0.00 | 68 | 1008.9 |
| 20260508071503 | 59 | 341 | 1.0 | 4.0 | 0.00 | 0.06 | 0.00 | 68 | 1008.8 |
| 20260508070503 | 59 | 317 | 1.0 | 2.0 | 0.00 | 0.06 | 0.00 | 69 | 1008.7 |
| 20260508070003 | 59 | 318 | 1.0 | 2.0 | 0.00 | 0.06 | 0.00 | 68 | 1008.6 |
| 20260508065503 | 58 | 280 | 1.0 | 2.0 | 0.00 | 0.06 | 0.00 | 70 | 1008.5 |
| 20260508065003 | 57 | 254 | 0.0 | 2.0 | 0.00 | 0.06 | 0.00 | 72 | 1008.6 |
| 20260508064504 | 56 | 274 | 0.0 | 2.0 | 0.00 | 0.06 | 0.00 | 74 | 1008.4 |
| 20260508064003 | 55 | 282 | 2.0 | 4.0 | 0.00 | 0.06 | 0.00 | 75 | 1008.3 |
| 20260508063003 | 55 | 312 | 2.0 | 4.0 | 0.00 | 0.06 | 0.00 | 75 | 1008.1 |
| 20260508062503 | 55 | 337 | 2.0 | 4.0 | 0.00 | 0.06 | 0.00 | 73 | 1007.8 |
| 20260508062003 | 56 | 359 | 2.0 | 4.0 | 0.00 | 0.06 | 0.00 | 71 | 1007.7 |
| 20260508061503 | 55 | 10 | 1.0 | 4.0 | 0.00 | 0.06 | 0.00 | 71 | 1007.4 |
| 20260508061003 | 55 | 17 | 1.0 | 6.0 | 0.00 | 0.06 | 0.00 | 71 | 1007.3 |
| 20260508060503 | 56 | 38 | 1.0 | 6.0 | 0.00 | 0.06 | 0.00 | 68 | 1007.2 |
| 20260508060003 | 56 | 44 | 2.0 | 6.0 | 0.00 | 0.06 | 0.00 | 65 | 1007.4 |
| 20260508055503 | 56 | 43 | 2.0 | 6.0 | 0.00 | 0.06 | 0.00 | 66 | 1007.3 |
| 20260508055004 | 56 | 67 | 2.0 | 6.0 | 0.00 | 0.06 | 0.00 | 68 | 1007.6 |
| 20260508054503 | 55 | 69 | 1.0 | 6.0 | 0.00 | 0.06 | 0.00 | 69 | 1007.8 |
| 20260508054003 | 54 | 53 | 1.0 | 4.0 | 0.00 | 0.06 | 0.00 | 75 | 1007.6 |
| 20260508053504 | 54 | 50 | 2.0 | 2.0 | 0.00 | 0.06 | 0.00 | 76 | 1007.9 |
| 20260508052503 | 53 | 112 | 0.0 | 2.0 | 0.00 | 0.06 | 0.00 | 78 | 1007.4 |
| 20260508052003 | 53 | 164 | 0.0 | 2.0 | 0.00 | 0.06 | 0.00 | 78 | 1007.9 |
| 20260508051503 | 53 | 189 | 0.0 | 4.0 | 0.00 | 0.06 | 0.00 | 78 | 1007.8 |
| 20260508051003 | 54 | 206 | 2.0 | 4.0 | 0.00 | 0.06 | 0.00 | 76 | 1007.7 |
| 20260508050003 | 54 | 219 | 2.0 | 4.0 | 0.00 | 0.06 | 0.00 | 75 | 1007.9 |
| 20260508045503 | 54 | 203 | 2.0 | 4.0 | 0.00 | 0.06 | 0.00 | 74 | 1007.8 |
| 20260508045004 | 55 | 203 | 2.0 | 4.0 | 0.00 | 0.06 | 0.00 | 74 | 1008.0 |
| 20260508044503 | 55 | 204 | 3.0 | 4.0 | 0.00 | 0.06 | 0.00 | 73 | 1007.9 |
| 20260508044003 | 55 | 208 | 1.0 | 4.0 | 0.00 | 0.06 | 0.00 | 74 | 1007.8 |
| 20260508043503 | 55 | 215 | 2.0 | 4.0 | 0.00 | 0.06 | 0.00 | 73 | 1007.8 |
| 20260508043003 | 55 | 235 | 2.0 | 2.0 | 0.00 | 0.06 | 0.00 | 73 | 1008.0 |
| 20260508042504 | 54 | 228 | 0.0 | 2.0 | 0.00 | 0.06 | 0.00 | 73 | 1007.8 |
| 20260508042003 | 55 | 196 | 0.0 | 2.0 | 0.00 | 0.06 | 0.00 | 73 | 1007.9 |
| 20260508041504 | 55 | 134 | 1.0 | 2.0 | 0.00 | 0.06 | 0.00 | 73 | 1007.7 |
| 20260508041004 | 55 | 142 | 2.0 | 4.0 | 0.00 | 0.06 | 0.00 | 73 | 1007.7 |
| 20260508040503 | 55 | 144 | 2.0 | 4.0 | 0.00 | 0.06 | 0.00 | 73 | 1007.7 |
| 20260508040004 | 54 | 102 | 0.0 | 4.0 | 0.00 | 0.06 | 0.00 | 74 | 1007.9 |
| 20260508035503 | 54 | 109 | 2.0 | 4.0 | 0.00 | 0.06 | 0.00 | 74 | 1007.8 |
| 20260508035003 | 55 | 150 | 1.0 | 4.0 | 0.00 | 0.06 | 0.00 | 74 | 1007.9 |
| 20260508034503 | 55 | 169 | 0.0 | 4.0 | 0.00 | 0.06 | 0.00 | 74 | 1007.8 |
| 20260508034004 | 55 | 151 | 1.0 | 2.0 | 0.00 | 0.06 | 0.00 | 74 | 1007.8 |
| 20260508033503 | 55 | 99 | 1.0 | 2.0 | 0.00 | 0.06 | 0.00 | 74 | 1008.0 |
| 20260508033003 | 54 | 98 | 0.0 | 2.0 | 0.00 | 0.06 | 0.00 | 74 | 1007.9 |
| 20260508032504 | 54 | 100 | 0.0 | 4.0 | 0.00 | 0.06 | 0.00 | 75 | 1007.7 |
| 20260508032003 | 54 | 95 | 0.0 | 4.0 | 0.00 | 0.06 | 0.00 | 76 | 1007.5 |
| 20260508031503 | 54 | 113 | 2.0 | 2.0 | 0.00 | 0.06 | 0.00 | 75 | 1007.8 |
| 20260508031003 | 55 | 122 | 0.0 | 2.0 | 0.00 | 0.06 | 0.00 | 75 | 1007.9 |
| 20260508030503 | 55 | 120 | 1.0 | 2.0 | 0.00 | 0.06 | 0.00 | 74 | 1007.6 |
| 20260508030004 | 55 | 115 | 0.0 | 4.0 | 0.00 | 0.06 | 0.00 | 74 | 1007.8 |
| 20260508025504 | 55 | 110 | 2.0 | 4.0 | 0.00 | 0.06 | 0.00 | 74 | 1007.4 |
| 20260508025003 | 55 | 121 | 1.0 | 2.0 | 0.00 | 0.06 | 0.00 | 73 | 1007.7 |
| 20260508024503 | 55 | 109 | 1.0 | 2.0 | 0.00 | 0.06 | 0.00 | 73 | 1007.6 |
| 20260508024004 | 55 | 112 | 0.0 | 2.0 | 0.00 | 0.06 | 0.00 | 74 | 1007.6 |
| 20260508023503 | 55 | 135 | 0.0 | 2.0 | 0.00 | 0.06 | 0.00 | 74 | 1007.6 |
| 20260508023004 | 55 | 148 | 0.0 | 4.0 | 0.00 | 0.06 | 0.00 | 73 | 1007.6 |
| 20260508022504 | 55 | 136 | 2.0 | 4.0 | 0.00 | 0.06 | 0.00 | 72 | 1007.4 |
| 20260508022004 | 55 | 102 | 1.0 | 4.0 | 0.00 | 0.06 | 0.00 | 73 | 1007.4 |
| 20260508021504 | 55 | 110 | 2.0 | 4.0 | 0.00 | 0.06 | 0.00 | 73 | 1007.5 |
| 20260508021003 | 55 | 130 | 1.0 | 2.0 | 0.00 | 0.06 | 0.00 | 73 | 1007.6 |
| 20260508020503 | 55 | 135 | 0.0 | 2.0 | 0.00 | 0.06 | 0.00 | 73 | 1007.4 |
| 20260508020004 | 55 | 135 | 0.0 | 2.0 | 0.00 | 0.06 | 0.00 | 73 | 1007.5 |
| 20260508015504 | 55 | 135 | 0.0 | 2.0 | 0.00 | 0.06 | 0.00 | 73 | 1007.3 |
| 20260508015004 | 55 | 135 | 0.0 | 2.0 | 0.00 | 0.06 | 0.00 | 73 | 1007.3 |
| 20260508014503 | 55 | 135 | 0.0 | 2.0 | 0.00 | 0.06 | 0.00 | 73 | 1007.2 |
| 20260508014003 | 55 | 135 | 1.0 | 2.0 | 0.00 | 0.06 | 0.00 | 73 | 1007.2 |
| 20260508013505 | 55 | 135 | 0.0 | 2.0 | 0.00 | 0.06 | 0.00 | 74 | 1007.2 |
| 20260508013003 | 55 | 135 | 1.0 | 2.0 | 0.00 | 0.06 | 0.00 | 74 | 1007.7 |
| 20260508012503 | 55 | 135 | 0.0 | 2.0 | 0.00 | 0.06 | 0.00 | 74 | 1007.4 |
| 20260508012003 | 55 | 135 | 0.0 | 2.0 | 0.00 | 0.06 | 0.00 | 71 | 1007.3 |
| 20260508011504 | 56 | 151 | 0.0 | 2.0 | 0.00 | 0.06 | 0.00 | 70 | 1007.4 |
| 20260508011003 | 56 | 158 | 0.0 | 2.0 | 0.00 | 0.06 | 0.00 | 70 | 1007.6 |
| 20260508010503 | 56 | 158 | 0.0 | 2.0 | 0.00 | 0.06 | 0.00 | 68 | 1007.7 |
| 20260508010004 | 56 | 155 | 0.0 | 2.0 | 0.00 | 0.06 | 0.00 | 68 | 1007.8 |
| 20260508005504 | 57 | 147 | 0.0 | 2.0 | 0.00 | 0.06 | 0.00 | 68 | 1007.8 |
| 20260508005004 | 57 | 139 | 0.0 | 4.0 | 0.00 | 0.06 | 0.00 | 68 | 1007.8 |
| 20260508004503 | 57 | 170 | 0.0 | 4.0 | 0.00 | 0.06 | 0.00 | 68 | 1007.9 |
| 20260508004003 | 57 | 188 | 2.0 | 4.0 | 0.00 | 0.06 | 0.00 | 68 | 1008.4 |
| 20260508003504 | 57 | 182 | 2.0 | 4.0 | 0.00 | 0.06 | 0.00 | 68 | 1008.2 |
| 20260508003005 | 57 | 169 | 1.0 | 4.0 | 0.00 | 0.06 | 0.00 | 68 | 1008.4 |
| 20260508002504 | 57 | 172 | 1.0 | 4.0 | 0.00 | 0.06 | 0.00 | 67 | 1008.5 |
| 20260508002004 | 57 | 176 | 2.0 | 4.0 | 0.00 | 0.06 | 0.00 | 67 | 1008.9 |
| 20260508001504 | 57 | 170 | 2.0 | 4.0 | 0.00 | 0.06 | 0.00 | 67 | 1008.8 |
| 20260508001003 | 57 | 157 | 1.0 | 4.0 | 0.00 | 0.06 | 0.00 | 68 | 1008.9 |
| 20260508000504 | 57 | 169 | 2.0 | 4.0 | 0.00 | 0.06 | 0.00 | 67 | 1008.8 |
| 20260508000004 | 57 | 192 | 2.0 | 4.0 | 0.00 | 0.06 | 0.00 | 67 | 1008.8 |
| 20260507235504 | 57 | 202 | 2.0 | 4.0 | 0.00 | 0.06 | 0.00 | 67 | 1008.6 |
| 20260507235003 | 57 | 192 | 2.0 | 6.0 | 0.00 | 0.06 | 0.00 | 67 | 1008.7 |
| 20260507234503 | 58 | 182 | 3.0 | 6.0 | 0.00 | 0.06 | 0.00 | 66 | 1008.5 |
| 20260507234003 | 58 | 179 | 2.0 | 4.0 | 0.00 | 0.06 | 0.00 | 65 | 1008.6 |
| 20260507233503 | 58 | 189 | 2.0 | 4.0 | 0.00 | 0.06 | 0.00 | 65 | 1008.7 |
| 20260507233004 | 58 | 212 | 2.0 | 4.0 | 0.00 | 0.06 | 0.00 | 65 | 1008.7 |
| 20260507232504 | 58 | 212 | 2.0 | 4.0 | 0.00 | 0.06 | 0.00 | 65 | 1008.8 |
| 20260507232003 | 58 | 194 | 2.0 | 6.0 | 0.00 | 0.06 | 0.00 | 65 | 1008.6 |
| 20260507231503 | 58 | 196 | 3.0 | 6.0 | 0.00 | 0.06 | 0.00 | 64 | 1008.7 |
| 20260507231004 | 59 | 198 | 2.0 | 4.0 | 0.00 | 0.06 | 0.00 | 64 | 1008.6 |
| 20260507230503 | 59 | 173 | 2.0 | 2.0 | 0.00 | 0.06 | 0.00 | 64 | 1008.5 |
| 20260507230004 | 59 | 183 | 1.0 | 2.0 | 0.00 | 0.06 | 0.00 | 63 | 1008.7 |
| 20260507225503 | 59 | 190 | 1.0 | 4.0 | 0.00 | 0.06 | 0.00 | 63 | 1008.8 |
| 20260507225003 | 59 | 182 | 2.0 | 4.0 | 0.00 | 0.06 | 0.00 | 63 | 1008.6 |
| 20260507224504 | 59 | 175 | 2.0 | 4.0 | 0.00 | 0.06 | 0.00 | 62 | 1008.4 |
| 20260507224004 | 59 | 169 | 2.0 | 4.0 | 0.00 | 0.06 | 0.00 | 62 | 1008.6 |
| 20260507223503 | 60 | 143 | 2.0 | 4.0 | 0.00 | 0.06 | 0.00 | 62 | 1008.5 |
| 20260507223003 | 60 | 147 | 1.0 | 4.0 | 0.00 | 0.06 | 0.00 | 62 | 1008.6 |
| 20260507222503 | 60 | 153 | 1.0 | 4.0 | 0.00 | 0.06 | 0.00 | 62 | 1008.8 |
| 20260507222004 | 59 | 174 | 1.0 | 7.0 | 0.00 | 0.06 | 0.00 | 62 | 1008.7 |
| 20260507221503 | 60 | 184 | 2.0 | 8.0 | 0.00 | 0.06 | 0.00 | 62 | 1008.8 |
| 20260507221004 | 60 | 172 | 2.0 | 8.0 | 0.00 | 0.06 | 0.00 | 62 | 1008.9 |
| 20260507220503 | 60 | 171 | 2.0 | 6.0 | 0.00 | 0.06 | 0.00 | 62 | 1009.0 |
| 20260507220007 | 60 | 181 | 2.0 | 6.0 | 0.00 | 0.06 | 0.00 | 62 | 1009.0 |
| 20260507215504 | 60 | 175 | 2.0 | 6.0 | 0.00 | 0.06 | 0.07 | 61 | 1009.0 |
| 20260507215003 | 60 | 163 | 2.0 | 4.0 | 0.00 | 0.06 | 0.07 | 62 | 1009.0 |
| 20260507214504 | 60 | 171 | 1.0 | 6.0 | 0.00 | 0.06 | 0.07 | 62 | 1009.1 |
| 20260507214004 | 60 | 181 | 2.0 | 7.0 | 0.00 | 0.06 | 0.07 | 61 | 1009.1 |
| 20260507213503 | 60 | 174 | 4.0 | 7.0 | 0.00 | 0.06 | 0.07 | 60 | 1008.9 |
| 20260507213004 | 61 | 162 | 2.0 | 4.0 | 0.00 | 0.06 | 0.07 | 61 | 1009.0 |
| 20260507212504 | 61 | 183 | 2.0 | 4.0 | 0.00 | 0.06 | 0.07 | 61 | 1008.8 |
| 20260507212003 | 61 | 189 | 3.0 | 6.0 | 0.00 | 0.06 | 0.07 | 61 | 1008.7 |
| 20260507211502 | 61 | 177 | 2.0 | 7.0 | 0.00 | 0.06 | 0.07 | 61 | 1009.0 |
| 20260507211002 | 61 | 166 | 3.0 | 7.0 | 0.00 | 0.06 | 0.07 | 61 | 1008.9 |
| 20260507210503 | 61 | 148 | 2.0 | 4.0 | 0.00 | 0.06 | 0.07 | 61 | 1008.8 |
| 20260507210002 | 62 | 163 | 1.0 | 4.0 | 0.00 | 0.06 | 0.07 | 62 | 1008.5 |
| 20260507205503 | 62 | 176 | 2.0 | 4.0 | 0.00 | 0.06 | 0.07 | 61 | 1008.6 |
| 20260507205003 | 61 | 176 | 2.0 | 6.0 | 0.00 | 0.06 | 0.07 | 61 | 1008.5 |
| 20260507204502 | 62 | 176 | 2.0 | 6.0 | 0.00 | 0.06 | 0.07 | 60 | 1008.5 |
| 20260507204002 | 62 | 169 | 3.0 | 6.0 | 0.00 | 0.06 | 0.07 | 60 | 1008.2 |
| 20260507203502 | 62 | 171 | 4.0 | 8.0 | 0.00 | 0.06 | 0.07 | 59 | 1008.1 |
| 20260507203002 | 62 | 188 | 1.0 | 9.0 | 0.00 | 0.06 | 0.07 | 60 | 1008.1 |
| 20260507202503 | 62 | 189 | 3.0 | 9.0 | 0.00 | 0.06 | 0.07 | 59 | 1008.0 |
| 20260507202004 | 62 | 172 | 2.0 | 6.0 | 0.00 | 0.06 | 0.07 | 60 | 1008.2 |
| 20260507201502 | 62 | 177 | 3.0 | 8.0 | 0.00 | 0.06 | 0.07 | 60 | 1008.0 |
| 20260507201003 | 62 | 190 | 3.0 | 8.0 | 0.00 | 0.06 | 0.07 | 59 | 1008.0 |
| 20260507200503 | 62 | 190 | 3.0 | 6.0 | 0.00 | 0.06 | 0.07 | 60 | 1007.8 |
| 20260507200002 | 62 | 178 | 4.0 | 6.0 | 0.00 | 0.06 | 0.07 | 59 | 1007.9 |
| 20260507195502 | 63 | 177 | 2.0 | 7.0 | 0.00 | 0.06 | 0.07 | 59 | 1007.8 |
| 20260507195003 | 63 | 170 | 4.0 | 7.0 | 0.00 | 0.06 | 0.07 | 57 | 1007.6 |
| 20260507194502 | 63 | 166 | 2.0 | 7.0 | 0.00 | 0.06 | 0.07 | 58 | 1007.6 |
| 20260507194002 | 63 | 174 | 4.0 | 7.0 | 0.00 | 0.06 | 0.07 | 58 | 1007.3 |
| 20260507193503 | 63 | 193 | 3.0 | 8.0 | 0.00 | 0.06 | 0.07 | 58 | 1007.4 |
| 20260507193002 | 63 | 202 | 4.0 | 8.0 | 0.00 | 0.06 | 0.07 | 58 | 1007.5 |
| 20260507192502 | 63 | 198 | 4.0 | 8.0 | 0.00 | 0.06 | 0.07 | 59 | 1007.3 |
| 20260507192002 | 63 | 194 | 3.0 | 7.0 | 0.00 | 0.06 | 0.07 | 60 | 1007.0 |
| 20260507191502 | 63 | 209 | 3.0 | 4.0 | 0.00 | 0.06 | 0.07 | 60 | 1007.0 |
| 20260507191004 | 63 | 261 | 2.0 | 4.0 | 0.00 | 0.06 | 0.07 | 61 | 1006.9 |
| 20260507190503 | 62 | 337 | 0.0 | 2.0 | 0.00 | 0.06 | 0.07 | 62 | 1006.8 |
| 20260507190003 | 62 | 344 | 0.0 | 2.0 | 0.00 | 0.06 | 0.07 | 66 | 1006.8 |
| 20260507185502 | 62 | 37 | 0.0 | 2.0 | 0.00 | 0.06 | 0.07 | 64 | 1006.7 |
| 20260507185003 | 62 | 32 | 0.0 | 2.0 | 0.00 | 0.06 | 0.07 | 64 | 1006.7 |
| 20260507184503 | 62 | 356 | 0.0 | 4.0 | 0.00 | 0.06 | 0.07 | 64 | 1006.5 |
| 20260507184002 | 63 | 8 | 1.0 | 4.0 | 0.00 | 0.06 | 0.07 | 63 | 1006.4 |
| 20260507183502 | 64 | 355 | 2.0 | 4.0 | 0.00 | 0.06 | 0.07 | 62 | 1006.5 |
| 20260507183003 | 64 | 328 | 0.0 | 2.0 | 0.00 | 0.06 | 0.07 | 60 | 1006.3 |
| 20260507182502 | 64 | 324 | 0.0 | 2.0 | 0.00 | 0.06 | 0.07 | 59 | 1006.4 |
| 20260507182003 | 66 | 292 | 0.0 | 2.0 | 0.00 | 0.06 | 0.07 | 54 | 1006.4 |
| 20260507181502 | 66 | 271 | 0.0 | 2.0 | 0.00 | 0.06 | 0.07 | 52 | 1006.3 |
| 20260507181003 | 67 | 263 | 1.0 | 2.0 | 0.00 | 0.06 | 0.07 | 51 | 1006.1 |
| 20260507180502 | 67 | 321 | 1.0 | 2.0 | 0.00 | 0.06 | 0.07 | 47 | 1006.0 |
| 20260507180004 | 68 | 15 | 0.0 | 2.0 | 0.00 | 0.06 | 0.07 | 47 | 1006.1 |
| 20260507175502 | 68 | 326 | 0.0 | 2.0 | 0.00 | 0.06 | 0.07 | 53 | 1006.2 |
| 20260507175002 | 68 | 333 | 0.0 | 2.0 | 0.00 | 0.06 | 0.07 | 53 | 1006.2 |
| 20260507174503 | 68 | 349 | 0.0 | 2.0 | 0.00 | 0.06 | 0.07 | 53 | 1006.1 |
| 20260507174002 | 67 | 14 | 0.0 | 2.0 | 0.00 | 0.06 | 0.07 | 54 | 1005.9 |
| 20260507173503 | 66 | 7 | 1.0 | 2.0 | 0.00 | 0.06 | 0.07 | 53 | 1006.0 |
| 20260507173002 | 67 | 355 | 1.0 | 2.0 | 0.00 | 0.06 | 0.07 | 57 | 1006.2 |
| 20260507172503 | 68 | 47 | 1.0 | 4.0 | 0.00 | 0.06 | 0.07 | 59 | 1006.3 |
| 20260507172003 | 67 | 65 | 2.0 | 6.0 | 0.06 | 0.06 | 0.07 | 51 | 1006.0 |
| 20260507171503 | 66 | 64 | 2.0 | 6.0 | 0.06 | 0.06 | 0.07 | 52 | 1006.2 |
| 20260507171002 | 65 | 86 | 2.0 | 7.0 | 0.06 | 0.06 | 0.07 | 57 | 1006.0 |
| 20260507170503 | 65 | 85 | 3.0 | 8.0 | 0.06 | 0.06 | 0.06 | 61 | 1006.2 |
| 20260507170003 | 63 | 56 | 4.0 | 8.0 | 0.06 | 0.06 | 0.06 | 64 | 1006.0 |
| 20260507165503 | 63 | 39 | 1.0 | 4.0 | 0.06 | 0.06 | 0.06 | 68 | 1006.1 |
| 20260507165003 | 61 | 21 | 2.0 | 4.0 | 0.06 | 0.06 | 0.06 | 71 | 1005.9 |
| 20260507164502 | 61 | 358 | 0.0 | 4.0 | 0.06 | 0.06 | 0.06 | 76 | 1006.0 |
| 20260507164002 | 60 | 1 | 1.0 | 4.0 | 0.06 | 0.06 | 0.06 | 70 | 1006.0 |
| 20260507163503 | 59 | 45 | 2.0 | 6.0 | 0.06 | 0.06 | 0.06 | 66 | 1006.2 |
| 20260507163002 | 60 | 223 | 2.0 | 14.0 | 0.06 | 0.06 | 0.06 | 60 | 1006.1 |
| 20260507162502 | 60 | 236 | 2.0 | 14.0 | 0.06 | 0.06 | 0.06 | 62 | 1006.2 |
| 20260507162003 | 59 | 231 | 8.0 | 14.0 | 0.00 | 0.00 | 0.00 | 66 | 1006.3 |
| 20260507161503 | 61 | 232 | 6.0 | 14.0 | 0.00 | 0.00 | 0.00 | 66 | 1006.2 |
| 20260507161002 | 61 | 226 | 11.0 | 14.0 | 0.00 | 0.00 | 0.00 | 63 | 1006.2 |
| 20260507160503 | 64 | 217 | 8.0 | 15.0 | 0.00 | 0.00 | 0.00 | 59 | 1005.9 |
| 20260507160003 | 65 | 217 | 5.0 | 15.0 | 0.00 | 0.00 | 0.00 | 54 | 1005.5 |
| 20260507155503 | 65 | 204 | 8.0 | 15.0 | 0.00 | 0.00 | 0.00 | 51 | 1005.7 |
| 20260507155003 | 67 | 196 | 4.0 | 6.0 | 0.00 | 0.00 | 0.00 | 46 | 1005.4 |
| 20260507154502 | 67 | 199 | 3.0 | 8.0 | 0.00 | 0.00 | 0.00 | 46 | 1005.4 |
| 20260507154003 | 67 | 126 | 4.0 | 11.0 | 0.00 | 0.00 | 0.00 | 45 | 1005.3 |
| 20260507153502 | 68 | 115 | 4.0 | 11.0 | 0.00 | 0.00 | 0.00 | 45 | 1005.4 |
| 20260507153003 | 69 | 144 | 4.0 | 11.0 | 0.00 | 0.00 | 0.00 | 43 | 1005.2 |
| 20260507152503 | 70 | 99 | 2.0 | 11.0 | 0.00 | 0.00 | 0.00 | 44 | 1005.4 |
| 20260507152003 | 70 | 116 | 4.0 | 8.0 | 0.00 | 0.00 | 0.00 | 43 | 1005.6 |
| 20260507151503 | 70 | 157 | 3.0 | 8.0 | 0.00 | 0.00 | 0.00 | 43 | 1005.5 |
| 20260507151002 | 70 | 138 | 4.0 | 8.0 | 0.00 | 0.00 | 0.00 | 42 | 1005.8 |
| 20260507150504 | 70 | 110 | 2.0 | 11.0 | 0.00 | 0.00 | 0.00 | 42 | 1005.9 |
| 20260507150002 | 70 | 97 | 2.0 | 11.0 | 0.00 | 0.00 | 0.00 | 42 | 1006.0 |
| 20260507145503 | 70 | 123 | 4.0 | 8.0 | 0.00 | 0.00 | 0.00 | 41 | 1006.1 |
| 20260507145003 | 71 | 139 | 2.0 | 8.0 | 0.00 | 0.00 | 0.00 | 40 | 1005.9 |
| 20260507144502 | 69 | 168 | 5.0 | 9.0 | 0.00 | 0.00 | 0.00 | 42 | 1006.0 |
| 20260507144003 | 68 | 185 | 4.0 | 9.0 | 0.00 | 0.00 | 0.00 | 45 | 1006.1 |
| 20260507143503 | 67 | 182 | 6.0 | 11.0 | 0.00 | 0.00 | 0.00 | 45 | 1006.2 |
| 20260507143003 | 68 | 176 | 4.0 | 11.0 | 0.00 | 0.00 | 0.00 | 45 | 1006.2 |
| 20260507142503 | 69 | 169 | 4.0 | 11.0 | 0.00 | 0.00 | 0.00 | 45 | 1006.3 |
| 20260507142003 | 67 | 136 | 3.0 | 8.0 | 0.00 | 0.00 | 0.00 | 46 | 1006.6 |
| 20260507141502 | 67 | 142 | 2.0 | 8.0 | 0.00 | 0.00 | 0.00 | 45 | 1006.6 |
| 20260507141004 | 67 | 196 | 3.0 | 8.0 | 0.00 | 0.00 | 0.00 | 45 | 1006.6 |
| 20260507140503 | 67 | 198 | 3.0 | 11.0 | 0.00 | 0.00 | 0.00 | 45 | 1006.5 |
| 20260507140003 | 68 | 170 | 2.0 | 11.0 | 0.00 | 0.00 | 0.00 | 43 | 1006.4 |
| 20260507135503 | 68 | 118 | 7.0 | 11.0 | 0.00 | 0.00 | 0.00 | 43 | 1006.5 |
| 20260507135004 | 68 | 132 | 3.0 | 9.0 | 0.00 | 0.00 | 0.00 | 44 | 1006.6 |
| 20260507134502 | 69 | 169 | 3.0 | 9.0 | 0.00 | 0.00 | 0.00 | 42 | 1006.7 |
| 20260507134003 | 68 | 164 | 4.0 | 11.0 | 0.00 | 0.00 | 0.00 | 44 | 1006.8 |
| 20260507133503 | 69 | 185 | 0.0 | 11.0 | 0.00 | 0.00 | 0.00 | 45 | 1006.9 |
| 20260507133002 | 68 | 191 | 5.0 | 11.0 | 0.00 | 0.00 | 0.00 | 46 | 1006.7 |
| 20260507132503 | 68 | 188 | 5.0 | 11.0 | 0.00 | 0.00 | 0.00 | 46 | 1006.6 |
| 20260507132003 | 68 | 199 | 2.0 | 11.0 | 0.00 | 0.00 | 0.00 | 45 | 1006.8 |
| 20260507131503 | 67 | 196 | 3.0 | 11.0 | 0.00 | 0.00 | 0.00 | 48 | 1006.5 |
| 20260507131003 | 65 | 202 | 4.0 | 11.0 | 0.00 | 0.00 | 0.00 | 48 | 1006.5 |
| 20260507130502 | 66 | 209 | 8.0 | 11.0 | 0.00 | 0.00 | 0.00 | 47 | 1006.6 |
| 20260507130004 | 66 | 199 | 7.0 | 11.0 | 0.00 | 0.00 | 0.00 | 47 | 1006.7 |
| 20260507125502 | 66 | 201 | 7.0 | 9.0 | 0.00 | 0.00 | 0.00 | 46 | 1006.7 |
| 20260507125003 | 66 | 235 | 4.0 | 7.0 | 0.00 | 0.00 | 0.00 | 45 | 1006.7 |
| 20260507124503 | 67 | 259 | 2.0 | 6.0 | 0.00 | 0.00 | 0.00 | 44 | 1006.8 |
| 20260507124003 | 67 | 275 | 2.0 | 6.0 | 0.00 | 0.00 | 0.00 | 42 | 1006.7 |
| 20260507123503 | 68 | 317 | 2.0 | 4.0 | 0.00 | 0.00 | 0.00 | 41 | 1006.9 |
| 20260507123002 | 69 | 299 | 1.0 | 4.0 | 0.00 | 0.00 | 0.00 | 43 | 1006.8 |
| 20260507122503 | 69 | 236 | 1.0 | 4.0 | 0.00 | 0.00 | 0.00 | 43 | 1007.0 |
| 20260507122003 | 67 | 233 | 2.0 | 4.0 | 0.00 | 0.00 | 0.00 | 43 | 1006.9 |
| 20260507121503 | 67 | 238 | 2.0 | 7.0 | 0.00 | 0.00 | 0.00 | 43 | 1007.0 |
| 20260507121004 | 67 | 226 | 2.0 | 7.0 | 0.00 | 0.00 | 0.00 | 43 | 1007.0 |
| 20260507120503 | 68 | 238 | 2.0 | 4.0 | 0.00 | 0.00 | 0.00 | 42 | 1007.0 |
| 20260507120002 | 69 | 260 | 2.0 | 7.0 | 0.00 | 0.00 | 0.00 | 41 | 1007.3 |
| 20260507115503 | 67 | 228 | 4.0 | 7.0 | 0.00 | 0.00 | 0.00 | 41 | 1007.4 |
| 20260507115003 | 67 | 189 | 4.0 | 7.0 | 0.00 | 0.00 | 0.00 | 42 | 1007.4 |
| 20260507114503 | 68 | 1 | 4.0 | 6.0 | 0.00 | 0.00 | 0.00 | 41 | 1007.4 |
| 20260507114003 | 70 | 319 | 2.0 | 4.0 | 0.00 | 0.00 | 0.00 | 41 | 1007.2 |
| 20260507113503 | 69 | 356 | 1.0 | 4.0 | 0.00 | 0.00 | 0.00 | 40 | 1007.3 |
| 20260507113002 | 72 | 335 | 1.0 | 4.0 | 0.00 | 0.00 | 0.00 | 39 | 1007.5 |
| 20260507112502 | 69 | 277 | 2.0 | 7.0 | 0.00 | 0.00 | 0.00 | 41 | 1007.4 |
| 20260507112003 | 67 | 264 | 1.0 | 7.0 | 0.00 | 0.00 | 0.00 | 43 | 1007.6 |
| 20260507111504 | 68 | 258 | 2.0 | 9.0 | 0.00 | 0.00 | 0.00 | 43 | 1007.7 |
| 20260507111003 | 67 | 255 | 4.0 | 9.0 | 0.00 | 0.00 | 0.00 | 43 | 1007.9 |
| 20260507110503 | 67 | 252 | 5.0 | 9.0 | 0.00 | 0.00 | 0.00 | 43 | 1007.6 |
| 20260507110003 | 67 | 236 | 4.0 | 7.0 | 0.00 | 0.00 | 0.00 | 42 | 1007.7 |
| 20260507105503 | 67 | 245 | 2.0 | 7.0 | 0.00 | 0.00 | 0.00 | 43 | 1007.7 |
| 20260507105002 | 67 | 251 | 0.0 | 7.0 | 0.00 | 0.00 | 0.00 | 42 | 1007.4 |
| 20260507104503 | 66 | 241 | 1.0 | 8.0 | 0.00 | 0.00 | 0.00 | 42 | 1007.7 |
| 20260507104004 | 66 | 233 | 4.0 | 8.0 | 0.00 | 0.00 | 0.00 | 43 | 1007.8 |
| 20260507103503 | 66 | 205 | 2.0 | 6.0 | 0.00 | 0.00 | 0.00 | 44 | 1007.7 |
| 20260507103003 | 65 | 220 | 4.0 | 6.0 | 0.00 | 0.00 | 0.00 | 45 | 1007.8 |
| 20260507102502 | 66 | 257 | 1.0 | 6.0 | 0.00 | 0.00 | 0.00 | 44 | 1007.9 |
| 20260507102003 | 65 | 253 | 2.0 | 4.0 | 0.00 | 0.00 | 0.00 | 44 | 1008.0 |
| 20260507101503 | 64 | 259 | 2.0 | 4.0 | 0.00 | 0.00 | 0.00 | 45 | 1008.0 |
| 20260507101003 | 65 | 264 | 3.0 | 4.0 | 0.00 | 0.00 | 0.00 | 45 | 1008.0 |
| 20260507100503 | 65 | 260 | 2.0 | 4.0 | 0.00 | 0.00 | 0.00 | 44 | 1008.0 |
| 20260507100003 | 66 | 270 | 1.0 | 6.0 | 0.00 | 0.00 | 0.00 | 43 | 1007.9 |
| 20260507095503 | 64 | 266 | 1.0 | 6.0 | 0.00 | 0.00 | 0.00 | 45 | 1007.9 |
| 20260507095002 | 64 | 261 | 3.0 | 4.0 | 0.00 | 0.00 | 0.00 | 46 | 1007.9 |
| 20260507094503 | 64 | 256 | 1.0 | 7.0 | 0.00 | 0.00 | 0.00 | 44 | 1008.1 |
| 20260507094003 | 64 | 260 | 2.0 | 7.0 | 0.00 | 0.00 | 0.00 | 46 | 1008.0 |
| 20260507093503 | 64 | 244 | 3.0 | 6.0 | 0.00 | 0.00 | 0.00 | 46 | 1008.1 |
| 20260507093003 | 63 | 213 | 3.0 | 6.0 | 0.00 | 0.00 | 0.00 | 48 | 1008.1 |
| 20260507092503 | 63 | 203 | 4.0 | 6.0 | 0.00 | 0.00 | 0.00 | 49 | 1008.1 |
| 20260507092003 | 63 | 193 | 3.0 | 4.0 | 0.00 | 0.00 | 0.00 | 48 | 1008.1 |
| 20260507091503 | 64 | 242 | 2.0 | 4.0 | 0.00 | 0.00 | 0.00 | 48 | 1007.9 |